This demonstration page uses our WeatherBlox Daily Observations layout. Learn more.

Left ArrowRight Arrow

53.62937, 11.41316

Hourly Observations for April 10, 2015

Temp ( °F °C ) Dew Point ( °F °C ) Humidity (%) Winds ( mph kmh ) Pressure ( in mb ) Visibility ( mi km ) Precip ( " mm )
6:20 am 06:20 Mostly Clear with Mist and Fog 34 1 34 1 100 100 E 6 9 30.21 1023 1 2 N/A
6:50 am 06:50 Partly Cloudy with Mist and Fog 34 1 34 1 100 100 E 7 11 30.21 1023 1 2 N/A
7:20 am 07:20 Partly Cloudy with Mist and Fog 34 1 34 1 100 100 ENE 6 9 30.21 1023 2 4 N/A
7:50 am 07:50 Partly Cloudy with Mist and Fog 37 3 37 3 100 100 ENE 6 9 30.21 1023 2 4 N/A
8:20 am 08:20 Partly Cloudy with Mist and Fog 41 5 41 5 100 100 E 3 6 30.21 1023 3 5 N/A
8:50 am 08:50 Mostly Sunny 45 7 43 6 93 93 E 6 9 30.21 1023 4 7 N/A
9:20 am 09:20 Mostly Sunny 48 9 45 7 87 87 VRB 2 4 30.21 1023 6 9 N/A
9:50 am 09:50 Mostly Sunny 52 11 45 7 77 77 SSE 7 11 30.21 1023 7 11 N/A
10:20 am 10:20 Mostly Sunny 55 13 45 7 67 67 SSE 8 13 30.21 1023 7 11 N/A
10:50 am 10:50 Mostly Sunny 57 14 45 7 63 63 SSE 6 9 30.21 1023 7 11 N/A
11:20 am 11:20 Mostly Sunny 57 14 45 7 63 63 SSE 8 13 30.21 1023 7 11 N/A
11:50 am 11:50 Mostly Sunny 59 15 46 8 63 63 SSE 7 11 30.21 1023 7 11 N/A
12:20 pm 12:20 Mostly Sunny 61 16 46 8 59 59 SE 6 9 30.21 1023 7 11 N/A
12:50 pm 12:50 Mostly Sunny 63 17 46 8 56 56 SSE 8 13 30.18 1022 7 11 N/A
1:20 pm 13:20 Partly Cloudy 61 16 45 7 55 55 SSE 5 7 30.18 1022 30 48 N/A
1:50 pm 13:50 Mostly Cloudy 63 17 45 7 52 52 SSE 6 9 30.18 1022 30 48 N/A
2:20 pm 14:20 Partly Cloudy 64 18 45 7 49 49 ESE 7 11 30.15 1021 30 48 N/A
2:50 pm 14:50 Mostly Sunny 64 18 45 7 49 49 E 10 17 30.15 1021 7 11 N/A
3:20 pm 15:20 Mostly Sunny 64 18 45 7 49 49 SE 7 11 30.15 1021 7 11 N/A
3:50 pm 15:50 Mostly Sunny 64 18 45 7 49 49 S 8 13 30.12 1020 7 11 N/A
4:20 pm 16:20 Mostly Sunny 66 19 46 8 49 49 SSE 7 11 30.12 1020 7 11 N/A
4:50 pm 16:50 Mostly Sunny 66 19 46 8 49 49 S 7 11 30.12 1020 7 11 N/A
5:20 pm 17:20 Mostly Sunny 66 19 46 8 49 49 SSE 7 11 30.12 1020 7 11 N/A
5:50 pm 17:50 Mostly Sunny 66 19 46 8 49 49 SSE 9 15 30.09 1019 7 11 N/A
6:20 pm 18:20 Mostly Sunny 66 19 46 8 49 49 SE 7 11 30.09 1019 7 11 N/A
6:50 pm 18:50 Mostly Sunny 64 18 46 8 52 52 SE 6 9 30.09 1019 7 11 N/A

Powered by AerisWeather